Theta_e
340 340 338 337 334 332 328 325 325 323 327 330 329 330 330 330 329 332 331 331 330 331 332 332 332 333 333 331 329 329 328 327 327 328 328 328 328 328 328 328 329 330 330
340 338 336 332 328 327 324 324 327 331 331 330 329 328 327 328 327 329 331 332 331 332 332 333 332 330 328 326 326 325 324 322 322 322 323 323 323 324 324 324 325 327 327
338 336 335 331 329 324 322 321 322 328 329 329 327 326 326 326 326 328 329 329 331 330 329 328 327 326 325 323 322 320 319 318 318 318 318 318 318 318 319 319 320 321 322
336 333 330 330 320 320 325 327 327 328 327 325 324 322 323 323 324 325 327 326 327 328 327 324 323 322 320 319 318 317 317 316 316 314 314 314 313 313 313 313 313 314 316
332 331 330 325 322 325 326 326 327 327 325 324 323 323 321 322 323 324 323 323 324 323 323 323 320 319 318 317 317 316 314 313 313 312 311 310 309 309 309 309 310 310 311
331 328 324 324 324 325 324 324 325 324 323 321 319 318 318 319 319 320 319 319 319 320 319 319 319 317 315 315 315 314 313 312 312 310 308 307 306 305 305 305 305 306 307
325 322 321 318 321 322 323 323 324 323 321 321 320 316 316 315 316 316 315 314 313 314 314 314 315 314 313 313 313 312 313 312 310 308 306 305 304 304 303 304 305 305 306
321 320 317 317 320 322 322 323 323 322 321 321 318 315 315 314 315 314 314 313 313 313 312 310 312 312 312 311 312 311 311 311 309 306 305 304 303 302 302 303 303 304 305
318 317 317 317 319 320 320 319 321 322 321 320 320 319 317 317 311 312 313 313 312 311 309 308 308 308 309 310 309 309 309 309 307 305 303 303 302 301 302 303 303 303 304
318 317 316 315 314 314 316 317 317 316 316 317 318 318 319 318 314 311 309 310 310 310 310 307 306 306 306 307 306 307 307 307 305 304 303 301 301 301 301 302 302 303 304
319 315 313 312 315 315 313 312 313 313 313 314 314 314 314 315 316 313 312 305 307 308 307 306 306 306 305 304 303 304 304 304 303 302 301 301 300 301 300 301 301 302 305
316 313 314 314 313 313 313 312 312 312 312 312 312 311 311 311 313 315 309 304 305 307 308 306 304 304 304 303 303 302 301 301 301 300 300 299 299 300 300 301 301 304 305
315 315 315 314 314 313 313 312 311 311 311 311 310 310 310 310 310 309 312 305 303 303 303 305 303 302 303 302 301 301 301 300 299 298 298 297 298 298 299 299 302 301 301
318 316 314 314 314 314 314 313 312 312 312 311 311 310 310 310 309 308 308 306 301 300 301 302 302 301 301 301 300 300 299 298 297 297 296 295 295 296 297 297 297 297 297
319 318 316 315 315 315 315 314 313 311 312 311 311 310 309 309 308 306 306 307 306 301 300 301 301 300 300 299 299 298 296 295 295 294 293 292 293 294 294 294 295 294 294
320 319 318 316 316 316 315 314 314 313 312 311 311 311 309 308 307 305 304 303 304 306 305 303 300 300 298 298 297 296 294 293 293 292 291 291 292 292 292 291 292 292 293
322 320 319 318 317 317 316 315 314 313 312 312 311 310 309 307 306 305 303 301 301 301 301 301 299 298 296 296 295 293 292 292 291 290 290 290 290 290 290 289 289 289 290
319 319 319 318 317 317 316 315 314 314 313 312 311 309 308 305 305 304 301 300 299 299 300 299 296 295 295 294 294 292 291 290 289 288 288 288 288 288 287 287 286 287 288
319 318 318 317 317 317 316 315 314 314 312 312 311 309 306 303 302 303 301 300 299 297 298 299 296 294 292 292 291 290 289 288 287 287 286 286 286 286 285 285 284 284 285
315 315 314 313 312 311 311 311 311 311 311 310 307 306 304 302 302 300 299 298 298 297 296 297 296 294 292 289 290 289 287 287 286 286 285 285 286 285 285 284 284 283 283
312 310 309 308 308 308 308 308 308 308 308 304 303 302 301 300 300 298 297 296 296 295 294 295 294 292 290 289 289 288 287 286 286 285 285 285 285 284 284 283 283 283 282
309 309 307 306 305 304 303 304 304 305 304 302 301 299 298 298 297 297 296 295 294 294 292 293 292 291 291 290 289 288 286 285 285 284 284 284 284 283 282 282 282 282 282
305 305 304 302 301 300 298 300 301 301 299 299 298 297 295 294 294 293 291 291 290 291 292 292 291 292 291 291 290 288 287 286 285 285 284 283 283 283 282 281 281 281 281
302 299 297 296 295 295 295 296 297 297 297 296 295 294 293 291 289 289 289 289 288 287 287 287 288 289 289 290 290 291 289 286 286 285 284 283 283 282 281 281 281 280 279
298 296 294 294 293 294 293 293 294 295 294 292 291 291 290 289 288 288 287 287 286 285 284 283 284 285 286 288 289 289 287 286 284 283 284 282 281 281 281 281 281 280 279
295 293 292 292 292 292 291 292 292 292 291 289 287 287 287 287 286 285 285 285 284 283 282 282 282 283 284 285 288 288 288 286 284 283 284 282 280 280 279 280 279 280 279
Wind_Speed
13 13 11 10 6 8 9 5 4 3 4 8 8 2 4 5 8 3 6 6 5 4 5 7 4 6 12 13 16 10 8 5 5 7 5 4 3 2 2 3 5 5 8
13 11 10 8 5 9 6 6 4 5 7 8 12 9 8 8 10 7 7 9 10 8 7 14 18 15 11 12 12 11 8 7 6 6 6 4 3 3 4 5 6 7 8
12 11 10 6 8 6 1 0 5 1 8 9 9 9 10 11 12 11 10 11 15 22 19 14 10 8 8 6 5 6 6 5 7 6 8 9 8 6 5 6 6 6 6
12 10 6 4 2 2 4 2 5 11 12 10 11 11 11 11 10 9 11 8 12 15 16 12 7 9 9 9 9 11 12 11 10 8 9 9 5 4 3 4 3 3 3
9 5 4 4 5 4 4 4 10 11 12 11 10 9 8 10 9 8 4 8 11 10 13 13 15 13 12 10 10 9 10 10 9 7 7 4 4 3 2 3 3 2 0
5 5 7 8 6 4 6 6 6 8 10 10 11 10 8 7 6 5 7 8 10 10 9 11 14 13 12 10 9 9 9 8 10 7 5 5 4 4 4 3 3 3 3
8 8 8 8 8 7 7 5 8 7 7 7 5 7 7 4 3 3 4 5 4 4 3 4 7 12 12 12 10 9 10 10 9 6 4 4 4 3 3 3 2 3 3
9 8 8 8 7 8 8 6 5 5 1 6 3 4 2 2 4 5 5 3 3 4 7 6 8 9 11 11 10 8 8 10 8 7 5 3 4 2 2 2 3 2 2
9 7 7 8 8 7 8 7 6 5 4 9 6 2 1 3 2 6 10 10 9 8 8 8 8 7 9 9 8 9 9 10 8 5 5 2 2 3 2 2 2 2 3
8 8 9 9 9 9 7 5 6 7 6 6 6 8 9 4 3 2 6 11 13 13 12 10 8 11 11 10 9 9 10 12 9 6 5 4 1 2 2 1 2 4 3
9 11 11 10 8 7 5 5 4 5 4 4 4 4 4 4 7 3 2 3 12 15 15 12 14 13 13 11 10 10 9 9 8 9 6 4 2 2 1 2 2 4 3
13 14 12 9 8 7 6 4 4 4 4 3 4 4 4 3 3 5 2 3 7 7 17 16 15 16 16 13 13 11 10 9 9 8 7 5 4 3 3 2 3 4 8
17 16 14 13 11 7 6 4 4 3 4 4 4 4 4 4 4 4 3 4 4 7 8 17 18 18 17 17 15 13 11 11 11 9 8 7 6 5 3 5 4 7 6
16 14 14 14 11 9 8 6 6 5 5 5 5 5 5 5 4 3 3 5 1 3 8 6 18 19 20 19 16 13 9 10 12 12 9 6 7 7 6 6 7 6 5
16 16 16 16 13 12 11 10 9 8 9 9 9 8 9 7 5 4 2 3 5 3 4 9 9 21 21 19 17 13 11 11 11 11 8 6 7 7 5 5 4 2 3
19 19 19 18 16 13 14 13 12 11 12 13 13 11 10 8 7 5 4 3 5 5 2 4 14 13 23 22 19 14 11 11 11 9 8 7 8 8 7 5 5 6 6
22 23 24 21 19 19 18 18 18 17 16 14 16 15 13 9 9 8 7 5 3 3 3 2 5 10 21 24 20 15 16 11 10 9 9 9 9 10 9 7 8 7 8
17 18 20 23 21 21 21 21 20 20 19 17 16 16 14 11 9 8 7 7 6 4 4 5 6 13 14 22 22 20 16 12 10 9 9 9 9 9 8 6 6 8 7
11 13 15 16 16 15 16 17 19 22 19 19 16 15 12 11 8 8 8 7 8 5 4 7 7 13 15 21 21 18 15 13 12 9 8 8 8 8 7 4 5 6 7
10 11 9 9 9 8 9 9 10 10 13 13 12 12 10 8 6 5 6 7 7 8 6 7 8 15 18 20 23 22 17 16 15 12 9 10 11 10 8 7 6 4 4
12 7 3 1 1 2 3 4 5 6 10 11 10 9 7 6 4 4 4 3 4 6 5 10 12 11 14 20 24 22 19 21 18 17 15 15 14 12 9 8 7 6 6
9 4 3 2 4 5 4 3 3 5 10 9 8 7 5 4 5 6 7 8 8 7 2 6 11 12 17 22 23 25 22 20 7 19 19 17 18 16 13 10 9 7 6
6 3 3 4 4 3 5 3 3 7 9 8 7 7 5 4 3 3 2 4 5 6 10 8 8 11 15 24 26 25 25 25 14 19 23 17 19 17 15 11 10 7 7
3 3 1 2 3 3 6 3 3 5 5 5 7 7 6 5 4 2 2 4 5 5 7 7 7 8 9 15 26 31 33 24 15 20 26 7 20 19 16 14 10 8 7
3 2 2 2 2 4 4 1 1 5 7 8 7 6 6 5 4 3 4 5 6 6 8 8 4 6 8 12 16 25 21 22 9 16 25 13 18 19 17 14 12 10 7
4 4 6 5 4 3 3 2 4 6 8 7 6 4 2 3 4 5 5 5 5 4 5 7 6 5 7 7 10 24 27 24 14 8 17 17 23 18 6 16 14 13 11
Wind_Direction
201 208 210 221 244 265 286 261 298 187 93 135 158 215 95 40 17 49 111 119 124 197 222 224 241 118 147 137 125 133 139 142 153 168 168 124 160 154 208 219 222 221 226
211 201 208 201 227 301 297 244 143 108 153 145 135 118 93 82 75 59 65 103 128 124 117 119 122 119 112 115 127 134 122 116 108 127 136 147 164 212 219 206 214 219 211
208 205 211 213 291 293 218 353 189 249 162 136 103 105 97 89 84 90 99 106 124 124 117 109 105 120 115 104 124 116 112 107 120 108 103 116 120 130 162 154 161 174 203
195 188 190 274 264 163 109 127 164 160 148 131 116 99 89 89 101 111 117 122 128 140 140 128 111 114 109 106 103 103 105 97 97 97 109 117 121 143 136 109 119 156 186
185 192 218 152 153 139 134 157 148 158 148 131 108 96 89 90 110 113 124 141 143 149 149 152 135 132 130 127 121 114 106 108 95 92 87 92 133 165 193 250 237 244 193
196 190 161 154 158 166 131 132 154 139 138 128 109 91 84 89 95 91 122 133 136 146 150 151 153 151 147 138 135 127 117 110 110 103 97 79 74 87 91 65 47 65 78
173 169 164 159 168 158 134 142 142 142 129 127 59 53 51 59 79 118 145 153 138 149 152 144 172 156 158 158 159 147 133 130 128 131 113 101 87 41 59 73 63 69 65
171 169 161 164 166 158 147 148 152 147 97 181 68 97 34 342 242 239 224 202 207 223 212 200 198 179 173 179 168 161 154 136 135 128 116 120 104 53 1 58 68 57 63
177 173 183 184 180 178 166 153 169 197 200 219 216 170 97 238 217 224 234 230 220 202 204 211 213 209 211 205 207 188 177 156 152 130 120 104 64 87 3 24 60 63 85
181 192 194 183 179 176 193 214 214 218 218 213 229 244 252 230 199 297 245 237 232 222 215 211 221 217 221 233 236 218 200 189 180 155 139 119 8 51 56 358 39 112 113
195 190 188 188 199 194 173 174 183 182 221 222 232 249 256 240 233 205 237 236 233 233 229 223 223 226 222 221 233 226 212 209 195 172 159 147 119 88 33 11 93 117 127
192 188 190 197 193 189 183 176 194 206 212 224 240 252 261 254 251 224 174 209 220 231 230 225 221 220 224 227 225 228 228 218 208 187 157 147 135 117 121 72 129 132 118
198 197 199 194 194 200 198 207 220 225 230 238 247 249 246 256 265 282 234 195 215 233 226 223 222 225 226 226 229 234 235 228 221 214 173 146 139 105 122 142 107 79 97
205 199 201 201 206 206 206 222 241 239 236 241 247 274 269 260 258 267 239 179 156 247 235 235 221 223 229 231 233 232 219 221 220 215 193 180 160 165 153 135 100 75 65
208 205 204 206 210 216 224 227 243 252 247 245 236 258 262 267 271 256 233 215 191 194 236 222 203 216 225 219 221 218 217 212 216 215 206 195 168 171 156 183 184 142 63
220 219 216 215 218 227 227 238 247 244 248 247 243 254 258 263 276 276 286 259 231 221 230 220 213 211 210 210 211 210 205 198 202 206 208 182 166 154 164 155 151 119 108
226 225 224 222 224 229 231 244 247 243 238 245 238 236 234 242 256 277 300 300 270 264 226 216 202 218 195 200 198 190 186 189 192 197 198 190 182 161 159 156 170 161 118
209 213 215 217 223 228 235 235 242 246 242 243 245 236 236 228 230 259 288 291 302 288 249 193 179 176 198 202 198 186 181 179 183 185 194 198 188 187 193 197 184 184 174
204 195 210 218 227 232 236 244 250 250 260 250 241 229 215 195 203 237 257 248 257 261 227 208 168 187 169 192 184 184 179 181 179 181 183 186 183 175 171 153 141 163 189
163 176 183 204 207 220 235 251 257 244 239 233 210 201 201 203 212 215 222 232 257 258 231 200 182 176 177 181 188 173 172 184 174 176 175 170 168 163 155 153 143 133 118
153 145 150 199 179 269 281 281 265 234 206 186 181 184 187 191 215 228 241 256 273 262 249 213 174 173 173 170 180 182 175 176 179 181 177 170 172 171 166 161 148 147 144
139 168 205 299 331 330 303 295 286 217 192 193 186 176 173 216 240 253 267 271 266 271 263 231 203 187 194 193 190 185 171 163 178 196 182 175 180 174 176 177 179 173 165
99 69 24 326 308 313 347 323 249 201 187 178 189 181 182 183 228 241 274 290 289 281 264 260 234 218 211 212 202 186 189 187 188 185 183 173 181 181 183 180 174 169 175
158 120 52 355 321 10 52 87 166 166 162 158 174 182 189 179 181 202 245 279 284 299 307 294 261 254 244 225 227 224 213 197 196 180 183 146 181 176 181 181 180 174 173
129 69 80 64 87 138 111 24 220 155 140 135 147 166 183 185 207 246 276 270 269 301 315 316 298 275 268 261 240 217 187 173 153 175 184 157 167 165 173 177 179 183 176
164 141 132 140 141 146 143 153 180 164 145 142 142 147 174 235 267 275 260 244 273 291 334 343 356 304 284 283 255 225 204 181 152 139 186 162 163 159 161 188 184 180 183